Time,TemperatureF,DewpointF,PressureIn,WindDirection,WindDirectionDegrees,WindSpeedMPH,WindSpeedGustMPH,Humidity,HourlyPrecipIn,Conditions,Clouds,dailyrainin,SoftwareType,DateUTC
2013-04-24 00:01:00,39.7,38.1,29.86,North,32767,-999.0,0.0,94,0.00,,,0.00,Wunderground v.1.15,2013-04-24 04:01:00,
2013-04-24 00:06:00,39.6,38.0,29.86,North,32767,-999.0,0.0,94,0.00,,,0.01,Wunderground v.1.15,2013-04-24 04:06:00,
2013-04-24 00:11:00,39.5,37.9,29.86,North,32767,-999.0,0.0,94,0.00,,,0.01,Wunderground v.1.15,2013-04-24 04:11:00,
2013-04-24 00:16:00,39.4,37.8,29.86,North,32767,-999.0,0.0,94,0.00,,,0.01,Wunderground v.1.15,2013-04-24 04:16:00,
2013-04-24 00:21:00,39.3,37.7,29.86,North,32767,-999.0,0.0,94,0.00,,,0.01,Wunderground v.1.15,2013-04-24 04:21:00,
2013-04-24 00:26:00,39.3,37.7,29.86,North,32767,-999.0,0.0,94,0.00,,,0.01,Wunderground v.1.15,2013-04-24 04:26:00,
2013-04-24 00:31:00,39.2,37.6,29.86,North,32767,-999.0,0.0,94,0.00,,,0.01,Wunderground v.1.15,2013-04-24 04:31:00,
2013-04-24 00:35:00,39.2,37.6,29.87,North,32767,-999.0,0.0,94,0.00,,,0.02,Wunderground v.1.15,2013-04-24 04:35:00,
2013-04-24 00:41:00,38.9,37.3,29.86,North,32767,-999.0,0.0,94,0.10,,,0.03,Wunderground v.1.15,2013-04-24 04:41:00,
2013-04-24 00:46:00,38.7,37.1,29.86,North,32767,-999.0,0.0,94,0.09,,,0.03,Wunderground v.1.15,2013-04-24 04:46:00,
2013-04-24 00:56:00,37.9,36.3,29.86,North,32767,-999.0,0.0,94,0.06,,,0.04,Wunderground v.1.15,2013-04-24 04:56:00,
2013-04-24 01:06:00,37.7,36.1,29.86,North,32767,-999.0,0.0,94,0.06,,,0.05,Wunderground v.1.15,2013-04-24 05:06:00,
2013-04-24 01:16:00,37.6,36.0,29.85,North,32767,-999.0,0.0,94,0.09,,,0.07,Wunderground v.1.15,2013-04-24 05:16:00,
2013-04-24 01:21:00,37.4,35.8,29.85,North,32767,-999.0,0.0,94,0.10,,,0.08,Wunderground v.1.15,2013-04-24 05:21:00,
2013-04-24 01:31:00,37.2,35.6,29.86,North,32767,-999.0,0.0,94,0.10,,,0.10,Wunderground v.1.15,2013-04-24 05:31:00,
2013-04-24 01:36:00,37.1,35.5,29.87,North,32767,-999.0,0.0,94,0.15,,,0.11,Wunderground v.1.15,2013-04-24 05:36:00,
2013-04-24 01:46:00,36.6,34.8,29.86,North,32767,-999.0,0.0,93,0.04,,,0.11,Wunderground v.1.15,2013-04-24 05:46:00,
2013-04-24 01:56:00,36.3,34.2,29.87,North,32767,-999.0,0.0,92,0.00,,,0.11,Wunderground v.1.15,2013-04-24 05:56:00,
2013-04-24 02:01:00,36.2,34.1,29.86,North,32767,-999.0,0.0,92,0.00,,,0.11,Wunderground v.1.15,2013-04-24 06:01:00,
2013-04-24 02:06:00,36.2,34.1,29.86,North,32767,-999.0,0.0,92,0.00,,,0.11,Wunderground v.1.15,2013-04-24 06:06:00,
2013-04-24 02:16:00,35.9,33.8,29.86,North,32767,-999.0,0.0,92,0.00,,,0.11,Wunderground v.1.15,2013-04-24 06:16:00,
2013-04-24 02:26:00,35.3,33.2,29.87,North,32767,-999.0,0.0,92,0.00,,,0.12,Wunderground v.1.15,2013-04-24 06:26:00,
2013-04-24 02:31:00,35.2,33.1,29.85,North,32767,-999.0,0.0,92,0.00,,,0.12,Wunderground v.1.15,2013-04-24 06:31:00,
2013-04-24 02:41:00,34.9,32.8,29.87,North,32767,-999.0,0.0,92,0.00,,,0.12,Wunderground v.1.15,2013-04-24 06:41:00,
2013-04-24 02:46:00,34.7,32.6,29.87,North,32767,-999.0,0.0,92,0.00,,,0.12,Wunderground v.1.15,2013-04-24 06:46:00,
2013-04-24 02:56:00,34.4,32.6,29.87,North,32767,-999.0,0.0,93,0.00,,,0.13,Wunderground v.1.15,2013-04-24 06:56:00,
2013-04-24 03:06:00,34.1,32.3,29.87,North,32767,-999.0,0.0,93,0.00,,,0.13,Wunderground v.1.15,2013-04-24 07:06:00,
2013-04-24 03:16:00,33.8,32.0,29.87,North,32767,-999.0,0.0,93,0.00,,,0.13,Wunderground v.1.15,2013-04-24 07:16:00,
2013-04-24 05:46:00,34.1,32.6,29.89,North,32767,-999.0,0.0,94,0.00,,,0.15,Wunderground v.1.15,2013-04-24 09:46:00,
2013-04-24 05:51:00,34.0,32.5,29.89,North,32767,-999.0,0.0,94,0.00,,,0.15,Wunderground v.1.15,2013-04-24 09:51:00,
2013-04-24 06:01:00,33.9,32.4,29.90,North,32767,-999.0,0.0,94,0.00,,,0.15,Wunderground v.1.15,2013-04-24 10:01:00,
2013-04-24 06:06:00,33.8,32.3,29.91,North,32767,-999.0,0.0,94,0.00,,,0.15,Wunderground v.1.15,2013-04-24 10:06:00,
2013-04-24 06:16:00,33.8,32.3,29.90,North,32767,-999.0,0.0,94,0.00,,,0.15,Wunderground v.1.15,2013-04-24 10:16:00,
2013-04-24 06:21:00,33.8,32.3,29.90,North,32767,-999.0,0.0,94,0.00,,,0.15,Wunderground v.1.15,2013-04-24 10:21:00,
2013-04-24 06:31:00,33.7,32.2,29.91,North,32767,-999.0,0.0,94,0.00,,,0.16,Wunderground v.1.15,2013-04-24 10:31:00,
2013-04-24 06:41:00,33.8,32.3,29.92,North,32767,-999.0,0.0,94,0.00,,,0.16,Wunderground v.1.15,2013-04-24 10:41:00,
2013-04-24 06:46:00,33.8,32.0,29.91,North,32767,-999.0,0.0,93,0.00,,,0.16,Wunderground v.1.15,2013-04-24 10:46:00,
2013-04-24 06:51:00,33.9,32.1,29.91,North,32767,-999.0,0.0,93,0.00,,,0.16,Wunderground v.1.15,2013-04-24 10:51:00,
2013-04-24 07:01:00,34.0,32.2,29.91,North,32767,-999.0,0.0,93,0.00,,,0.16,Wunderground v.1.15,2013-04-24 11:01:00,
2013-04-24 07:06:00,34.0,32.2,29.91,North,32767,-999.0,0.0,93,0.00,,,0.16,Wunderground v.1.15,2013-04-24 11:06:00,
2013-04-24 07:16:00,34.0,32.2,29.92,North,32767,-999.0,0.0,93,0.00,,,0.16,Wunderground v.1.15,2013-04-24 11:16:00,
2013-04-24 07:26:00,34.2,32.1,29.91,North,32767,-999.0,0.0,92,0.00,,,0.16,Wunderground v.1.15,2013-04-24 11:26:00,
2013-04-24 07:36:00,34.3,32.2,29.91,North,32767,-999.0,0.0,92,0.00,,,0.16,Wunderground v.1.15,2013-04-24 11:36:00,
2013-04-24 07:41:00,34.3,32.2,29.91,North,32767,-999.0,0.0,92,0.00,,,0.16,Wunderground v.1.15,2013-04-24 11:41:00,
2013-04-24 07:51:00,34.4,32.0,29.91,North,32767,-999.0,0.0,91,0.00,,,0.16,Wunderground v.1.15,2013-04-24 11:51:00,
2013-04-24 07:56:00,34.4,32.0,29.92,North,32767,-999.0,0.0,91,0.00,,,0.16,Wunderground v.1.15,2013-04-24 11:56:00,
2013-04-24 08:06:00,34.4,32.0,29.92,North,32767,-999.0,0.0,91,0.00,,,0.16,Wunderground v.1.15,2013-04-24 12:06:00,
2013-04-24 08:16:00,34.4,31.8,29.93,North,32767,-999.0,0.0,90,0.00,,,0.16,Wunderground v.1.15,2013-04-24 12:16:00,
2013-04-24 08:21:00,34.4,31.8,29.92,North,32767,-999.0,0.0,90,0.00,,,0.16,Wunderground v.1.15,2013-04-24 12:21:00,
2013-04-24 08:31:00,34.6,32.0,29.93,North,32767,-999.0,0.0,90,0.00,,,0.16,Wunderground v.1.15,2013-04-24 12:31:00,
2013-04-24 08:36:00,34.8,32.2,29.93,North,32767,-999.0,0.0,90,0.00,,,0.16,Wunderground v.1.15,2013-04-24 12:36:00,
2013-04-24 08:46:00,35.0,32.1,29.93,North,32767,-999.0,0.0,89,0.00,,,0.16,Wunderground v.1.15,2013-04-24 12:46:00,
2013-04-24 08:56:00,35.2,32.3,29.93,North,32767,-999.0,0.0,89,0.00,,,0.16,Wunderground v.1.15,2013-04-24 12:56:00,
2013-04-24 09:06:00,35.3,32.4,29.93,North,32767,-999.0,0.0,89,0.00,,,0.16,Wunderground v.1.15,2013-04-24 13:06:00,
2013-04-24 09:16:00,35.5,32.3,29.92,North,32767,-999.0,0.0,88,0.00,,,0.16,Wunderground v.1.15,2013-04-24 13:16:00,
2013-04-24 09:21:00,35.7,32.5,29.92,North,32767,-999.0,0.0,88,0.00,,,0.16,Wunderground v.1.15,2013-04-24 13:21:00,
2013-04-24 09:26:00,35.9,32.7,29.92,North,32767,-999.0,0.0,88,0.00,,,0.16,Wunderground v.1.15,2013-04-24 13:26:00,
2013-04-24 09:36:00,36.0,32.5,29.92,North,32767,-999.0,0.0,87,0.00,,,0.16,Wunderground v.1.15,2013-04-24 13:36:00,
2013-04-24 09:46:00,36.1,32.3,29.92,North,32767,-999.0,0.0,86,0.00,,,0.16,Wunderground v.1.15,2013-04-24 13:46:00,
2013-04-24 09:51:00,36.3,32.5,29.92,North,32767,-999.0,0.0,86,0.00,,,0.16,Wunderground v.1.15,2013-04-24 13:51:00,
2013-04-24 09:56:00,36.8,33.3,29.92,North,32767,-999.0,0.0,87,0.00,,,0.16,Wunderground v.1.15,2013-04-24 13:56:00,
2013-04-24 10:06:00,36.4,32.0,29.91,North,32767,-999.0,0.0,84,0.00,,,0.16,Wunderground v.1.15,2013-04-24 14:06:00,
2013-04-24 10:16:00,36.6,32.2,29.91,North,32767,-999.0,0.0,84,0.00,,,0.16,Wunderground v.1.15,2013-04-24 14:16:00,
2013-04-24 10:21:00,36.6,32.2,29.91,North,32767,-999.0,0.0,84,0.00,,,0.16,Wunderground v.1.15,2013-04-24 14:21:00,
2013-04-24 10:31:00,36.5,32.1,29.90,North,32767,-999.0,0.0,84,0.00,,,0.16,Wunderground v.1.15,2013-04-24 14:31:00,
2013-04-24 10:36:00,36.6,32.2,29.90,North,32767,-999.0,0.0,84,0.00,,,0.16,Wunderground v.1.15,2013-04-24 14:36:00,
2013-04-24 10:46:00,36.9,31.9,29.91,North,32767,-999.0,0.0,82,0.00,,,0.16,Wunderground v.1.15,2013-04-24 14:46:00,
2013-04-24 10:56:00,37.1,32.4,29.92,North,32767,-999.0,0.0,83,0.00,,,0.16,Wunderground v.1.15,2013-04-24 14:56:00,
2013-04-24 11:11:00,37.6,32.6,29.93,North,32767,-999.0,0.0,82,0.00,,,0.16,Wunderground v.1.15,2013-04-24 15:11:00,
2013-04-24 11:16:00,37.4,31.8,29.94,North,32767,-999.0,0.0,80,0.00,,,0.16,Wunderground v.1.15,2013-04-24 15:16:00,
2013-04-24 11:21:00,37.3,31.7,29.94,North,32767,-999.0,0.0,80,0.00,,,0.16,Wunderground v.1.15,2013-04-24 15:21:00,
2013-04-24 11:26:00,37.4,31.8,29.94,North,32767,-999.0,0.0,80,0.00,,,0.16,Wunderground v.1.15,2013-04-24 15:26:00,
2013-04-24 11:36:00,37.5,31.9,29.94,North,32767,-999.0,0.0,80,0.00,,,0.16,Wunderground v.1.15,2013-04-24 15:36:00,
2013-04-24 11:46:00,37.8,31.9,29.95,North,32767,-999.0,0.0,79,0.00,,,0.16,Wunderground v.1.15,2013-04-24 15:46:00,
2013-04-24 11:56:00,38.4,32.5,29.95,North,32767,-999.0,0.0,79,0.00,,,0.16,Wunderground v.1.15,2013-04-24 15:56:00,
2013-04-24 12:06:00,38.5,31.9,29.95,North,32767,-999.0,0.0,77,0.00,,,0.16,Wunderground v.1.15,2013-04-24 16:06:00,
2013-04-24 12:16:00,38.8,32.8,29.94,NNW,329,10.0,10.0,79,0.00,,,0.16,Wunderground v.1.15,2013-04-24 16:16:00,
2013-04-24 12:26:00,39.3,32.7,29.95,NW,304,8.0,10.0,77,0.00,,,0.16,Wunderground v.1.15,2013-04-24 16:26:00,
2013-04-24 12:36:00,39.4,32.1,29.94,NW,312,8.0,11.0,75,0.00,,,0.16,Wunderground v.1.15,2013-04-24 16:36:00,
2013-04-24 12:46:00,39.5,32.6,29.94,NNW,346,8.0,10.0,76,0.00,,,0.16,Wunderground v.1.15,2013-04-24 16:46:00,
2013-04-24 12:51:00,39.7,32.4,29.94,NNW,329,8.0,8.0,75,0.00,,,0.16,Wunderground v.1.15,2013-04-24 16:51:00,
2013-04-24 12:56:00,39.6,32.7,29.94,NNW,335,8.0,8.0,76,0.00,,,0.16,Wunderground v.1.15,2013-04-24 16:56:00,
2013-04-24 13:06:00,39.9,32.9,29.94,NW,309,7.0,9.0,76,0.00,,,0.16,Wunderground v.1.15,2013-04-24 17:06:00,
2013-04-24 13:16:00,40.1,32.8,29.94,West,263,7.0,10.0,75,0.00,,,0.16,Wunderground v.1.15,2013-04-24 17:16:00,
2013-04-24 13:26:00,40.2,33.6,29.95,NW,304,8.0,13.0,77,0.00,,,0.16,Wunderground v.1.15,2013-04-24 17:26:00,
2013-04-24 13:31:00,40.7,34.4,29.94,West,278,9.0,9.0,78,0.00,,,0.16,Wunderground v.1.15,2013-04-24 17:31:00,
2013-04-24 13:41:00,40.4,33.1,29.94,WNW,287,8.0,9.0,75,0.00,,,0.16,Wunderground v.1.15,2013-04-24 17:41:00,
2013-04-24 13:46:00,40.4,33.8,29.94,NW,310,9.0,12.0,77,0.00,,,0.16,Wunderground v.1.15,2013-04-24 17:46:00,
2013-04-24 13:56:00,41.1,34.1,29.94,West,274,12.0,13.0,76,0.00,,,0.16,Wunderground v.1.15,2013-04-24 17:56:00,
2013-04-24 14:06:00,40.9,33.2,29.95,West,275,11.0,11.0,74,0.00,,,0.16,Wunderground v.1.15,2013-04-24 18:06:00,
2013-04-24 14:16:00,41.2,33.5,29.95,West,264,8.0,11.0,74,0.00,,,0.16,Wunderground v.1.15,2013-04-24 18:16:00,
2013-04-24 14:21:00,40.9,33.2,29.95,NW,309,9.0,11.0,74,0.00,,,0.16,Wunderground v.1.15,2013-04-24 18:21:00,
2013-04-24 14:26:00,40.9,33.2,29.96,WNW,292,9.0,11.0,74,0.00,,,0.16,Wunderground v.1.15,2013-04-24 18:26:00,
2013-04-24 14:36:00,40.8,33.2,29.96,West,271,10.0,11.0,74,0.00,,,0.16,Wunderground v.1.15,2013-04-24 18:36:00,
2013-04-24 14:46:00,41.3,33.3,29.97,West,274,7.0,11.0,73,0.00,,,0.16,Wunderground v.1.15,2013-04-24 18:46:00,
2013-04-24 14:56:00,40.7,33.1,29.97,SW,236,2.0,2.0,74,0.00,,,0.16,Wunderground v.1.15,2013-04-24 18:56:00,
2013-04-24 15:06:00,41.5,32.8,29.98,SW,217,0.0,2.0,71,0.00,,,0.16,Wunderground v.1.15,2013-04-24 19:06:00,
2013-04-24 15:11:00,41.3,32.6,29.98,West,279,0.0,0.0,71,0.00,,,0.16,Wunderground v.1.15,2013-04-24 19:11:00,
2013-04-24 15:21:00,41.2,32.2,29.98,West,273,2.0,2.0,70,0.00,,,0.16,Wunderground v.1.15,2013-04-24 19:21:00,
2013-04-24 15:31:00,42.0,32.9,29.99,WNW,286,0.0,0.0,70,0.00,,,0.16,Wunderground v.1.15,2013-04-24 19:31:00,
2013-04-24 15:36:00,42.0,32.9,29.99,West,268,0.0,0.0,70,0.00,,,0.16,Wunderground v.1.15,2013-04-24 19:36:00,
2013-04-24 15:46:00,42.1,31.6,29.99,WNW,286,0.0,0.0,66,0.00,,,0.16,Wunderground v.1.15,2013-04-24 19:46:00,
2013-04-24 15:51:00,42.4,32.6,29.99,NW,306,0.0,0.0,68,0.00,,,0.16,Wunderground v.1.15,2013-04-24 19:51:00,
2013-04-24 16:01:00,42.2,31.6,30.00,WNW,298,0.0,0.0,66,0.00,,,0.16,Wunderground v.1.15,2013-04-24 20:01:00,
2013-04-24 16:06:00,42.3,31.4,30.00,WNW,286,0.0,0.0,65,0.00,,,0.16,Wunderground v.1.15,2013-04-24 20:06:00,
2013-04-24 16:16:00,41.7,30.0,30.00,WNW,284,0.0,0.0,63,0.00,,,0.16,Wunderground v.1.15,2013-04-24 20:16:00,
2013-04-24 16:26:00,42.4,30.3,30.00,West,274,0.0,0.0,62,0.00,,,0.16,Wunderground v.1.15,2013-04-24 20:26:00,
2013-04-24 16:36:00,42.4,29.5,30.00,West,276,0.0,0.0,60,0.00,,,0.16,Wunderground v.1.15,2013-04-24 20:36:00,
2013-04-24 16:46:00,43.3,29.1,30.00,WNW,286,0.0,0.0,57,0.00,,,0.16,Wunderground v.1.15,2013-04-24 20:46:00,
2013-04-24 16:51:00,43.0,28.8,30.01,West,279,0.0,0.0,57,0.00,,,0.16,Wunderground v.1.15,2013-04-24 20:51:00,
2013-04-24 17:01:00,43.0,30.1,30.01,WNW,286,0.0,0.0,60,0.00,,,0.16,Wunderground v.1.15,2013-04-24 21:01:00,
2013-04-24 17:06:00,43.0,29.6,30.01,WNW,290,0.0,7.0,59,0.00,,,0.16,Wunderground v.1.15,2013-04-24 21:06:00,
2013-04-24 17:16:00,43.0,28.8,30.02,West,265,7.0,9.0,57,0.00,,,0.16,Wunderground v.1.15,2013-04-24 21:16:00,
2013-04-24 17:21:00,43.2,28.1,30.02,West,275,7.0,12.0,55,0.00,,,0.16,Wunderground v.1.15,2013-04-24 21:21:00,
2013-04-24 17:26:00,43.4,27.8,30.02,West,281,7.0,14.0,54,0.00,,,0.16,Wunderground v.1.15,2013-04-24 21:26:00,
2013-04-24 17:36:00,43.0,27.5,30.02,West,276,12.0,12.0,54,0.00,,,0.16,Wunderground v.1.15,2013-04-24 21:36:00,
2013-04-24 17:46:00,43.2,27.2,30.03,West,265,10.0,14.0,53,0.00,,,0.16,Wunderground v.1.15,2013-04-24 21:46:00,
2013-04-24 17:51:00,43.4,28.7,30.03,WSW,256,8.0,9.0,56,0.00,,,0.16,Wunderground v.1.15,2013-04-24 21:51:00,
2013-04-24 18:01:00,43.6,27.1,30.03,West,266,8.0,16.0,52,0.00,,,0.16,Wunderground v.1.15,2013-04-24 22:01:00,
2013-04-24 18:11:00,43.5,27.5,30.03,West,263,11.0,11.0,53,0.00,,,0.16,Wunderground v.1.15,2013-04-24 22:11:00,
2013-04-24 18:16:00,43.6,27.1,30.03,WNW,290,10.0,11.0,52,0.00,,,0.16,Wunderground v.1.15,2013-04-24 22:16:00,
2013-04-24 18:26:00,43.6,27.1,30.03,West,279,10.0,10.0,52,0.00,,,0.16,Wunderground v.1.15,2013-04-24 22:26:00,
2013-04-24 18:36:00,43.7,28.1,30.04,WSW,252,9.0,13.0,54,0.00,,,0.16,Wunderground v.1.15,2013-04-24 22:36:00,
2013-04-24 18:46:00,43.7,28.1,30.04,West,261,10.0,10.0,54,0.00,,,0.16,Wunderground v.1.15,2013-04-24 22:46:00,
2013-04-24 18:56:00,43.1,27.6,30.04,SW,222,12.0,14.0,54,0.00,,,0.16,Wunderground v.1.15,2013-04-24 22:56:00,
2013-04-24 19:06:00,43.0,27.0,30.05,WSW,242,9.0,11.0,53,0.00,,,0.16,Wunderground v.1.15,2013-04-24 23:06:00,
2013-04-24 19:16:00,42.8,27.7,30.04,SW,228,9.0,14.0,55,0.00,,,0.16,Wunderground v.1.15,2013-04-24 23:16:00,
2013-04-24 19:26:00,42.1,27.9,30.05,SW,222,12.0,12.0,57,0.00,,,0.16,Wunderground v.1.15,2013-04-24 23:26:00,
2013-04-24 19:31:00,42.2,28.0,30.05,SW,223,12.0,12.0,57,0.00,,,0.16,Wunderground v.1.15,2013-04-24 23:31:00,
2013-04-24 19:36:00,42.0,28.7,30.05,SW,225,12.0,12.0,59,0.00,,,0.16,Wunderground v.1.15,2013-04-24 23:36:00,
2013-04-24 19:46:00,42.0,28.3,30.04,SW,221,9.0,11.0,58,0.00,,,0.16,Wunderground v.1.15,2013-04-24 23:46:00,
2013-04-24 19:56:00,41.4,27.7,30.05,SW,219,10.0,11.0,58,0.00,,,0.16,Wunderground v.1.15,2013-04-24 23:56:00,
2013-04-24 20:06:00,40.9,28.1,30.05,SW,215,10.0,12.0,60,0.00,,,0.16,Wunderground v.1.15,2013-04-25 00:06:00,
2013-04-24 20:16:00,40.4,27.6,30.05,SW,216,10.0,10.0,60,0.00,,,0.16,Wunderground v.1.15,2013-04-25 00:16:00,
2013-04-24 20:26:00,40.0,27.6,30.06,SW,216,8.0,9.0,61,0.00,,,0.16,Wunderground v.1.15,2013-04-25 00:26:00,
2013-04-24 20:36:00,39.2,28.0,30.06,SW,216,7.0,8.0,64,0.00,,,0.16,Wunderground v.1.15,2013-04-25 00:36:00,
2013-04-24 20:41:00,39.0,28.6,30.06,North,32767,-999.0,0.0,66,0.00,,,0.16,Wunderground v.1.15,2013-04-25 00:41:00,
2013-04-24 20:51:00,38.1,28.8,30.06,North,32767,-999.0,0.0,69,0.00,,,0.16,Wunderground v.1.15,2013-04-25 00:51:00,
2013-04-24 21:01:00,37.8,28.5,30.07,North,32767,-999.0,0.0,69,0.00,,,0.16,Wunderground v.1.15,2013-04-25 01:01:00,
2013-04-24 21:06:00,37.9,28.6,30.07,North,32767,-999.0,0.0,69,0.00,,,0.16,Wunderground v.1.15,2013-04-25 01:06:00,
2013-04-24 21:16:00,37.3,28.8,30.07,North,32767,-999.0,0.0,71,0.00,,,0.16,Wunderground v.1.15,2013-04-25 01:16:00,
2013-04-24 21:26:00,36.9,28.0,30.08,North,32767,-999.0,0.0,70,0.00,,,0.16,Wunderground v.1.15,2013-04-25 01:26:00,
2013-04-24 21:31:00,36.9,28.4,30.08,North,32767,-999.0,0.0,71,0.00,,,0.16,Wunderground v.1.15,2013-04-25 01:31:00,
2013-04-24 21:41:00,36.5,28.3,30.08,North,32767,-999.0,0.0,72,0.00,,,0.16,Wunderground v.1.15,2013-04-25 01:41:00,
2013-04-24 21:46:00,36.2,28.0,30.08,North,32767,-999.0,0.0,72,0.00,,,0.16,Wunderground v.1.15,2013-04-25 01:46:00,
2013-04-24 21:56:00,36.7,27.8,30.09,North,32767,-999.0,0.0,70,0.00,,,0.16,Wunderground v.1.15,2013-04-25 01:56:00,
2013-04-24 22:01:00,36.9,28.0,30.09,North,32767,-999.0,0.0,70,0.00,,,0.16,Wunderground v.1.15,2013-04-25 02:01:00,
2013-04-24 22:11:00,36.3,28.1,30.10,North,32767,-999.0,0.0,72,0.00,,,0.16,Wunderground v.1.15,2013-04-25 02:11:00,
2013-04-24 22:21:00,36.5,28.0,30.09,North,32767,-999.0,0.0,71,0.00,,,0.16,Wunderground v.1.15,2013-04-25 02:21:00,
2013-04-24 22:26:00,36.7,28.2,30.10,North,32767,-999.0,0.0,71,0.00,,,0.16,Wunderground v.1.15,2013-04-25 02:26:00,
2013-04-24 22:31:00,36.7,28.5,30.10,North,32767,-999.0,0.0,72,0.00,,,0.16,Wunderground v.1.15,2013-04-25 02:31:00,
2013-04-24 22:41:00,37.0,28.1,30.10,North,32767,-999.0,0.0,70,0.00,,,0.16,Wunderground v.1.15,2013-04-25 02:41:00,
2013-04-24 22:46:00,37.1,28.2,30.10,North,32767,-999.0,0.0,70,0.00,,,0.16,Wunderground v.1.15,2013-04-25 02:46:00,
2013-04-24 22:51:00,37.1,28.2,30.10,North,32767,-999.0,0.0,70,0.00,,,0.16,Wunderground v.1.15,2013-04-25 02:51:00,
2013-04-24 22:56:00,37.2,28.3,30.10,North,32767,-999.0,0.0,70,0.00,,,0.16,Wunderground v.1.15,2013-04-25 02:56:00,
2013-04-24 23:06:00,37.1,28.6,30.10,North,32767,-999.0,0.0,71,0.00,,,0.16,Wunderground v.1.15,2013-04-25 03:06:00,
2013-04-24 23:16:00,37.1,28.6,30.10,North,32767,-999.0,0.0,71,0.00,,,0.16,Wunderground v.1.15,2013-04-25 03:16:00,
2013-04-24 23:26:00,37.3,29.1,30.10,North,32767,-999.0,0.0,72,0.00,,,0.16,Wunderground v.1.15,2013-04-25 03:26:00,
2013-04-24 23:31:00,37.2,29.0,30.10,North,32767,-999.0,0.0,72,0.00,,,0.16,Wunderground v.1.15,2013-04-25 03:31:00,
2013-04-24 23:41:00,38.2,29.6,30.10,North,32767,-999.0,0.0,71,0.00,,,0.16,Wunderground v.1.15,2013-04-25 03:41:00,
2013-04-24 23:46:00,38.6,29.7,30.10,North,32767,-999.0,0.0,70,0.00,,,0.16,Wunderground v.1.15,2013-04-25 03:46:00,
2013-04-24 23:56:00,38.9,29.9,30.10,North,32767,-999.0,0.0,70,0.00,,,0.16,Wunderground v.1.15,2013-04-25 03:56:00,